Location: UBC Liquid-Mirror Observatory
(49.2876°N, 122.5728°W)
Time: 19:45:54
(UTC-07:00)

KITSAT 1 - Visible Passes

Search period start: 24 October 2014 00:00
Search period end: 02 November 2014 23:00
Orbit: 1314 x 1317 km, 66.1° (Epoch: 23 October)

Date Brightness Start Highest point End Pass type
(mag) Time Alt. Az. Time Alt. Az. Time Alt. Az.
24 Oct 11.0 19:20:38 10° NW 19:27:50 33° NNE 19:32:29 20° ENE visible
24 Oct 10.0 21:16:16 10° NW 21:24:24 84° NE 21:24:28 84° ENE visible
24 Oct 11.9 23:12:32 10° NW 23:16:28 23° WNW 23:16:28 23° WNW visible
25 Oct 10.8 19:36:52 10° NW 19:44:25 40° NNE 19:48:19 26° E visible
25 Oct 10.2 21:32:25 10° NW 21:40:18 75° WSW 21:40:18 75° WSW visible
25 Oct 12.2 23:29:29 10° WNW 23:32:18 16° W 23:32:18 16° W visible
26 Oct 10.5 19:53:02 10° NW 20:00:53 50° NE 20:04:12 33° E visible
26 Oct 10.6 21:48:39 10° NW 21:56:12 55° WSW 21:56:12 55° WSW visible
26 Oct 12.5 23:47:40 10° WNW 23:48:12 11° W 23:48:12 11° W visible
27 Oct 10.2 20:09:10 10° NW 20:17:13 64° NE 20:20:10 41° ESE visible
27 Oct 11.1 22:04:59 10° NW 22:12:10 40° WSW 22:12:10 40° WSW visible
28 Oct 11.0 18:29:40 10° NW 18:36:50 33° NNE 18:43:58 10° E visible
28 Oct 10.1 20:25:18 10° NW 20:33:26 82° NE 20:36:13 46° SE visible
28 Oct 11.6 22:21:31 10° NW 22:28:02 28° WSW 22:28:13 28° WSW visible
29 Oct 10.8 18:45:54 10° NW 18:53:25 40° NNE 19:00:21 12° E visible
29 Oct 10.2 20:41:27 10° NW 20:49:32 76° WSW 20:52:22 45° SSE visible
29 Oct 12.0 22:38:26 10° WNW 22:43:38 19° WSW 22:44:23 19° WSW visible
30 Oct 10.5 19:02:04 10° NW 19:09:53 49° NE 19:16:37 14° ESE visible
30 Oct 10.7 20:57:40 10° NW 21:05:30 57° WSW 21:08:39 37° S visible
30 Oct 12.4 22:56:25 10° WNW 22:59:08 12° W 23:00:41 11° WSW visible
31 Oct 10.3 19:18:12 10° NW 19:26:14 63° NE 19:33:04 15° SE visible
31 Oct 11.2 21:14:00 10° NW 21:21:22 41° WSW 21:25:06 26° SSW visible
01 Nov 10.2 19:34:20 10° NW 19:42:28 81° NE 19:49:44 14° SE visible
01 Nov 11.7 21:30:31 10° NW 21:37:06 29° WSW 21:41:48 17° SSW visible
02 Nov 10.3 18:50:29 10° NW 18:58:34 78° WSW 19:06:37 10° SSE visible
02 Nov 12.2 20:47:23 10° WNW 20:52:43 20° WSW 20:58:03 10° SW visible
